Weather in Shizuoka

Japan     34°59′34″N   138°26′10″E
temp.,
°C
wind,
m/s
gust,
m/s
humid.,
%
clouds,
%
prec.,
mm/h
press.,
hPa
HPBL,
m
21 june, mon
mon2100:00+22n118596 0.0 100126
03:00+21ne128319 0.1 1002103
06:00+21n2277100 0.0 1004113
09:00+23e11709 0.0 1005410
12:00+23s767247 0.0 1006835
15:00+20s8986100 0.7 1007797
18:00+19sw2379100 0.4 1008608
21:00+19w118099 0.4 1008376
22 june, tue
tue2200:00+19nnw118340 0.0 1008176
03:00+18n2285100 0.0 1007139
06:00+20ne348077 0.0 1007284
09:00+22ne467188 0.0 1008597
12:00+23ese3570100 0.0 1007548
15:00+23ssw336989 0.0 1007548
18:00+23nnw1174100 0.0 100746
21:00+21nne3480100 0.1 1009276
23 june, wed
wed2300:00+21ne4482100 0.1 1008324
03:00+20ne4582100 0.1 1007381
06:00+20nne3477100 0.0 1008309
09:00+23ene5668100 0.0 1008821
12:00+25e91059100 0.0 1007834
15:00+23e101366100 0.0 1006619
18:00+22e7107175 0.0 1008659
21:00+21ene5673100 0.1 1010489
24 june, thu
thu2400:00+20nne237516 0.1 1009267
03:00+20nne23787 0.1 1009245
06:00+20nne227655 0.0 1011315
09:00+21ese226884 0.0 1011450
12:00+23s436730 0.0 1011782
15:00+22s4371100 0.1 1011640
18:00+22ssw2274100 0.0 1011328
21:00+21nw2278100 0.0 1013175
25 june, fri
fri2500:00+20n3480100 0.0 1012217
03:00+20nne4579100 0.0 1011290
06:00+21ne567993 0.0 1011407
09:00+23e456837 0.0 1012706
12:00+25e466096 0.0 1011563
15:00+25ese57606 0.0 1010491
18:00+24ene5872100 0.0 1009332
21:00+22ene5781100 0.0 1011374